Location: Ajisawe
(8.4333°N, 4.3833°E)
Time: 23:34:42
(UTC+00:00)

Vanguard 1 Rocket - Pass Details

Date: 19 April 2021
Orbit: 652 x 4224 km, 34.3° (Epoch: 10 May)

Event Time Altitude Azimuth Distance (km) Brightness Sun altitude
Rises 18:39:14 0° 323° (NW) 3,304 11.1 -12.3°
Reaches altitude 10° 18:41:31 10° 334° (NNW) 2,585 10.3 -12.8°
Maximum altitude 18:47:03 34° 39° (NE) 1,940 8.8 -14.1°
Enters shadow 18:53:01 18° 91° (E) 3,357 9.7 -15.6°
